Regional Weather Roundup
Issued by NWS

Home | Current Version | Previous Version | Text Only | Print | Product List | Glossary Off
Versions: 1 2 3 4 5 6 7 8 9 10 11 12 13 14 15 16 17 18 19 20 21 22 23 24 25 26 27 28 29 30 31 32 33 34 35 36 37 38 39 40 41 42 43 44 45 46 47 48 49 50

000
ASUS43 KLMK 222102
RWRKY
KENTUCKY REGIONAL WEATHER ROUNDUP
NATIONAL WEATHER SERVICE LOUISVILLE KY
500 PM EDT FRI MAY 22 2015

NOTE "FAIR" INDICATES FEW OR NO CLOUDS BELOW 12,000 FEET
WITH NO SIGNIFICANT WEATHER AND/OR OBSTRUCTIONS TO VISIBILITY.

KYZ001>023-026-027-061>063-070>075-222200-
WESTERN AND SOUTH CENTRAL KENTUCKY

CITY           SKY/WX    TMP DP  RH WIND       PRES   REMARKS
PADUCAH        PTSUNNY   74  45  35 S5        30.25F
HENDERSON      MOSUNNY   73  48  40 W3        30.23F
OWENSBORO      MOSUNNY   74  49  41 NW6       30.25F
HOPKINSVILLE   SUNNY     71  48  44 NE5       30.26F
BOWLING GREEN  MOSUNNY   74  44  34 VRB6      30.26S
GLASGOW        NOT AVBL
$$

KYZ024-025-028>034-038-045-046-053-222200-
NORTH CENTRAL KENTUCKY

CITY           SKY/WX    TMP DP  RH WIND       PRES   REMARKS
LOUISVILLE/SDF PTSUNNY   77  47  34 W12G20    30.23F
LOUISVILLE/LOU SUNNY     75  45  34 W13G18    30.24S
FORT KNOX      MOSUNNY   72  48  42 SW9       30.23F
$$

KYZ035>037-039>044-047>052-055>060-089>105-222200-
NORTHEAST KENTUCKY

CITY           SKY/WX    TMP DP  RH WIND       PRES   REMARKS
LEXINGTON      SUNNY     73  44  35 W12       30.25S
COVINGTON      PTSUNNY   74  47  38 SW14      30.21S
FRANKFORT      SUNNY     73  43  33 SW7       30.23S
$$

KYZ054-064>069-076>088-106>120-222200-
SOUTHEAST KENTUCKY

CITY           SKY/WX    TMP DP  RH WIND       PRES   REMARKS
JACKSON        SUNNY     69  41  36 VRB3      30.26F
LONDON         SUNNY     72  39  30 MISG      30.26F
SOMERSET       NOT AVBL
MIDDLESBORO    SUNNY     70  42  36 N8        30.26F
MONTICELLO     CLEAR     73  43  34 VRB6      30.29F
$$



USA.gov is the U.S. government's official web portal to all federal, state and local government web resources and services.